Dewpoint
37 34 35 34 33 33 30 31 30 31 30 29 30 28 26 25 23 23 22 22 21 21 22 23 23 23 25 23 23 21 20 22 19 20 22 21 22 23 23 22 22 19
36 34 34 33 32 31 29 30 29 29 29 28 29 28 26 24 23 23 22 22 22 22 22 23 22 22 22 20 22 19 19 19 20 21 21 23 21 22 21 23 22 20
35 34 34 33 31 29 28 28 28 29 29 28 28 26 26 24 23 22 21 22 21 21 22 22 22 21 20 20 20 18 17 19 20 19 19 20 17 18 19 19 18 17
33 33 32 32 31 29 27 26 26 26 26 26 25 24 24 25 22 21 22 22 20 20 21 20 20 19 19 17 17 15 17 16 17 16 17 17 17 17 17 16 18 17
32 31 31 30 29 28 25 24 24 23 23 24 23 23 22 22 20 18 17 16 16 16 16 15 15 14 15 14 13 13 13 14 16 15 16 16 17 16 17 16 16 16
31 31 30 30 29 26 23 22 22 21 22 21 21 21 21 20 17 15 15 14 14 14 14 13 12 12 11 11 10 11 13 13 13 12 14 15 15 16 16 15 15 15
29 29 29 29 27 25 22 21 20 20 20 20 19 18 18 17 15 15 15 14 14 14 12 11 11 11 10 9 9 11 11 12 12 12 14 15 15 14 14 14 14 14
28 28 28 27 26 23 22 21 19 17 16 16 16 17 17 17 15 15 13 13 13 13 10 10 11 11 9 8 9 10 11 11 11 12 13 14 14 13 12 12 13 14
27 25 25 23 23 20 19 16 15 13 15 14 15 16 16 15 14 13 12 11 11 10 11 10 11 9 8 7 8 9 10 10 10 11 13 13 12 12 11 11 11 13
24 23 21 20 19 17 16 14 12 11 14 13 14 15 15 14 13 12 10 10 9 9 9 9 9 9 8 7 8 9 9 9 9 10 11 11 11 11 11 10 10 11
23 21 19 18 18 16 15 11 10 10 12 11 13 14 14 13 13 10 9 9 8 8 8 9 9 8 7 7 8 8 8 8 8 8 9 10 10 11 14 10 9 9
22 20 19 18 17 15 14 11 10 11 12 12 13 15 13 12 11 9 9 7 7 7 7 8 8 8 7 7 8 9 9 9 8 7 8 9 10 11 11 9 9 8
22 19 18 17 16 15 12 10 9 11 12 12 14 13 13 12 11 9 9 7 7 7 7 8 8 7 7 7 8 9 9 9 9 8 7 8 8 10 11 9 9 8
22 19 18 17 15 14 12 10 11 13 13 13 15 13 12 12 11 9 9 7 7 7 7 8 7 7 6 7 7 8 9 10 10 9 6 6 6 8 10 10 9 9
22 19 18 17 16 14 13 11 13 13 14 14 14 13 13 12 11 10 9 8 8 8 8 8 7 6 6 7 7 7 8 9 11 10 6 5 5 6 8 9 9 8
22 20 18 17 16 14 13 12 13 15 15 15 15 14 13 12 12 11 10 9 9 9 9 8 7 7 16 20 17 10 9 9 10 11 8 5 6 5 5 8 8 8
21 20 18 17 16 15 19 16 16 18 16 18 17 14 15 14 12 12 11 10 10 10 10 9 8 10 22 23 22 21 11 10 11 13 9 5 6 5 5 6 7 8
21 20 20 19 18 19 20 20 20 21 20 20 19 18 16 14 13 12 12 10 10 10 10 10 9 22 24 25 25 23 20 12 13 16 15 6 5 5 5 5 6 7
22 21 20 21 22 21 22 22 22 22 22 20 20 19 18 16 13 14 12 12 11 11 11 11 10 24 26 26 26 26 23 17 16 13 16 15 7 6 5 5 6 8
22 24 23 23 22 23 21 22 22 22 22 22 20 20 18 17 17 16 15 13 12 12 12 12 11 24 27 28 28 28 26 21 17 17 18 15 11 7 5 5 6 8
23 23 23 23 24 23 23 22 22 23 23 22 21 19 19 18 17 18 18 18 18 16 13 13 11 25 27 28 28 29 29 27 20 19 19 16 12 9 7 6 6 7
24 25 24 24 23 24 23 23 23 23 23 23 21 20 20 20 20 20 20 20 19 19 17 14 13 25 27 28 29 30 29 29 26 23 19 18 14 12 9 8 7 8
24 24 24 24 24 24 24 24 24 23 22 22 22 21 20 19 20 20 21 21 21 20 18 16 18 24 27 29 30 30 31 29 28 26 23 20 16 15 11 9 9 9
24 25 25 24 24 24 24 24 23 23 22 22 21 21 20 20 20 20 21 21 21 20 20 19 20 24 27 29 29 30 31 29 28 27 26 24 22 18 15 13 12 20
24 25 24 24 23 24 24 24 23 23 23 22 22 22 21 21 21 20 21 21 21 21 24 21 22 24 26 28 28 29 30 29 28 27 26 25 23 22 20 17 14 18
25 25 25 24 25 25 25 24 24 23 22 22 22 21 21 20 20 20 21 21 22 22 22 23 22 22 25 27 28 29 30 29 28 26 24 24 24 23 22 22 19 16